Showing default

COSMOS 2165, 21779

Orbit data source: Space-Track

COSMOS 2165, 21779 is a payload satellite owned by UNKS RF (CIS) in LEO that was launched on Tue, 12 Nov 1991 UTC via a TSIKLON-3 launch vehicle from the Plesetsk Missile And Space Complex (PKMTR). Payload-class satellites include a variety of spacecraft equipped with specific instruments for various scientific and technological missions. These include communications satellites like Starlink; space stations such as the ISS; scientific satellites like the Hubble; Earth observation satellites from companies like Planet Labs, Umbra, and HawkEye 360; GPS; miniature CubeSats for education and research; and military/defense satellites.

Loading next visibility...
Identifier
21779, 1991-077A
Orbit
LEO
Country
Flag of CISCIS
Related business
Manufacturer
NPO PM
Mission
Defense Communications
Bus & Motor
STRELA-3, Unknown motor
Mass
225 kg wet, 225 kg dry
Launch date (UTC)
1991-11-12 (34 years ago)
Launch vehicle
TSIKLON-3
Launch site
Plesetsk Missile And Space Complex (PKMTR)
Object type
Payload
Rocket body
Debris
Shape & HBR
Cyl, 0.8 m
Radar Cross Section
1.257 m², Large (>1 m²)

Expand to show TLE details & history
Last TLE update: 10 hours ago

TLE from 10 hours ago
0 COSMOS 2165
1 21779U 91077A   26036.07547594  .00000044  00000-0  18080-3 0  9996
2 21779  82.6100 316.6055 0010774   1.0766   9.4960 12.64917431580290
Epoch: 2026-02-05T01:48Z
TLE epoch observation values (Epoch: 2026-02-05T01:48:41.121Z)
Latitude
10.45533°
Longitude
155.5659°
Altitude
1,396.435 km
Speed
7.166 km/s
True Right ascension
21h 11m 52s
True Declination
10° 23' 57"
Sunlit
Object was in daylight at epoch
Visualization orbit readout
Latitude
Unknown
Longitude
Unknown
Altitude
Unknown
Speed
Unknown
Apparent Right ascension
Unknown
Apparent Declination
Unknown
Sunlit
N/A
Visualization observer readout
Local Sidereal Time
13:52:01
Azimuth
Unknown
Elevation
Unknown
Doppler factor
Unknown
Orbital elements
Apogee altitude
1,408.409 km
Perigee altitude
1,391.649 km
Semi-major axis
7,778.166 km
Eccentricity
0.00108
Inclination
82.61°
RAAN
316.6055°
Arg. of periapsis
1.0766°
True anomaly
9.5164°
Mean anomaly
9.496°
Eccentric anomaly
9.5062°
Mean motion
3.16393 °/min
Orbital period
113.78 mins
BSTAR
0.0001808
Loading maneuver chart data...
Computing Atmospheric mass density...
Loading historical data...
Loading historical data...
Loading historical data...
Loading historical data...
Loading historical data...
Loading historical data...
Loading historical data...

Documentation

Showing up to 5 results
|